Mitchell, SD

12:20 PM CST on December 06, 2019 (GMT -0600)
Mitchell Municipal

Weather History for KMHE - May, 2019

Change the Weather History Date:

Friday, May 17, 2019

  Actual Average Record
Temperature  
Mean Temperature 60 °F 60 °F  
Max Temperature 67 °F 71 °F 105 °F (1934)
Min Temperature 53 °F 48 °F 27 °F (1925)
Degree Days  
Heating Degree Days 5 7  
Month to date heating degree days 188 145  
Since 1 July heating degree days 7876 7145  
Cooling Degree Days 0 1  
Month to date cooling degree days 7 14  
Year to date cooling degree days 7 16  
Growing Degree Days 10 (Base 50)    
Moisture  
Dew Point 52 °F    
Average Humidity 77    
Maximum Humidity 93    
Minimum Humidity 61    
Precipitation  
Precipitation 0.61 in 0.08 in 2.30 in (1898)
Month to date precipitation 2.37 1.30  
Year to date precipitation 9.95 5.10  
Snow  
Snow 0.00 in - 0.00 in ()
Month to date snowfall 0.0  
Since 1 July snowfall 67.6  
Snow Depth 0.00 in    
Sea Level Pressure  
Sea Level Pressure 29.66 in    
Wind  
Wind Speed 17 mph (East)    
Max Wind Speed 36 mph    
Max Gust Speed 48 mph    
Visibility 9 miles    
Events Rain , Thunderstorm    
T = Trace of Precipitation, MM = Missing Value Source: NWS Daily Summary

Daily Weather History Graph

Daily Weather History Graph

Search for Another Location

Airport or City:

Astronomy

May. 17, 2019 Rise Set
Actual Time 6:04 AM CDT 8:52 PM CDT
Civil Twilight 5:31 AM CDT 9:26 PM CDT
Nautical Twilight 4:49 AM CDT 10:08 PM CDT
Astronomical Twilight 4:00 AM CDT 10:58 PM CDT
Moon 7:38 PM CDT (5/17) 5:42 AM CDT (5/17)
Length of Visible Light 15h 55m
Length of Day
14h 48m
Waxing Gibbous, 98% of the Moon is Illuminated
May 17
Waxing Gibbous
May 18
Full
May 26
Last Quarter
Jun 3
New
Jun 10
First Quarter

Hourly Weather History & Observations

Time (CDT) Temp. Dew Point Humidity Pressure Visibility Wind Dir Wind Speed Gust Speed Precip Events Conditions
12:53 AM 55.0 °F 43.0 °F 64% 29.79 in 10.0 mi NE 10.4 mph - N/A   Clear
1:53 AM 55.0 °F 42.1 °F 62% 29.81 in 10.0 mi ENE 8.1 mph - N/A   Overcast
2:53 AM 55.9 °F 42.1 °F 60% 29.89 in 10.0 mi SW 3.5 mph - N/A   Overcast
3:53 AM 54.0 °F 46.0 °F 75% 29.78 in 10.0 mi ENE 18.4 mph - 0.03 in Rain Light Rain
4:53 AM 54.0 °F 46.0 °F 75% 29.79 in 10.0 mi ESE 10.4 mph - 0.00 in Rain Light Rain
5:53 AM 53.1 °F 45.0 °F 74% 29.77 in 10.0 mi East 13.8 mph - 0.00 in Rain Light Rain
6:53 AM 53.1 °F 45.0 °F 74% 29.78 in 10.0 mi East 12.7 mph - 0.00 in   Clear
7:53 AM 54.0 °F 46.0 °F 75% 29.78 in 10.0 mi East 9.2 mph - N/A   Clear
8:53 AM 55.9 °F 46.9 °F 72% 29.75 in 10.0 mi East 18.4 mph - N/A   Mostly Cloudy
9:37 AM 59.0 °F 48.0 °F 67% 29.75 in 10.0 mi East 18.4 mph 25.3 mph N/A   Mostly Cloudy
9:53 AM 57.9 °F 48.9 °F 72% 29.75 in 10.0 mi East 12.7 mph - N/A   Overcast
10:17 AM 59.0 °F 48.9 °F 69% 29.75 in 10.0 mi East 16.1 mph - N/A   Overcast
10:53 AM 60.1 °F 48.9 °F 67% 29.74 in 10.0 mi East 16.1 mph - N/A   Overcast
11:53 AM 63.0 °F 52.0 °F 67% 29.73 in 10.0 mi ESE 15.0 mph 26.5 mph N/A   Overcast
12:02 PM 63.0 °F 52.0 °F 67% 29.73 in 10.0 mi East 17.3 mph 26.5 mph N/A   Overcast
12:53 PM 64.0 °F 53.1 °F 67% 29.69 in 10.0 mi East 16.1 mph 25.3 mph N/A   Overcast
1:53 PM 64.9 °F 54.0 °F 68% 29.67 in 10.0 mi East 17.3 mph 27.6 mph N/A   Overcast
2:53 PM 66.0 °F 55.0 °F 68% 29.65 in 10.0 mi East 21.9 mph 32.2 mph N/A   Overcast
3:53 PM 64.9 °F 55.0 °F 70% 29.63 in 10.0 mi East 23.0 mph 35.7 mph N/A   Overcast
4:53 PM 64.0 °F 55.0 °F 73% 29.62 in 10.0 mi East 24.2 mph 33.4 mph N/A   Overcast
5:53 PM 63.0 °F 55.0 °F 75% 29.57 in 10.0 mi East 23.0 mph 39.1 mph N/A   Overcast
6:53 PM 62.1 °F 55.0 °F 78% 29.56 in 10.0 mi East 26.5 mph 41.4 mph N/A   Overcast
7:06 PM 61.0 °F 55.0 °F 81% 29.55 in 10.0 mi East 25.3 mph 36.8 mph 0.00 in Rain , Thunderstorm Light Thunderstorms and Rain
7:25 PM 61.0 °F 55.9 °F 83% 29.54 in 9.0 mi East 26.5 mph 42.6 mph 0.00 in Rain , Thunderstorm Light Rain
7:39 PM 60.1 °F 55.9 °F 86% 29.57 in 5.0 mi ESE 20.7 mph 36.8 mph 0.02 in Rain , Thunderstorm Light Rain
7:53 PM 60.1 °F 55.9 °F 86% 29.59 in 6.0 mi SE 25.3 mph 39.1 mph 0.03 in Rain , Thunderstorm Light Rain
8:20 PM 60.1 °F 57.0 °F 90% 29.53 in 7.0 mi ESE 25.3 mph 36.8 mph 0.02 in   Mostly Cloudy
8:30 PM 60.1 °F 55.9 °F 86% 29.53 in 7.0 mi ESE 23.0 mph 34.5 mph 0.02 in Rain Light Rain
8:35 PM 60.1 °F 55.9 °F 86% 29.53 in 8.0 mi East 19.6 mph 33.4 mph 0.02 in Rain Light Rain
8:53 PM 60.1 °F 57.0 °F 90% 29.55 in 7.0 mi East 15.0 mph - 0.02 in   Overcast
9:53 PM 60.1 °F 57.0 °F 90% 29.54 in 7.0 mi NE 13.8 mph - N/A   Overcast
10:53 PM 60.1 °F 57.0 °F 90% 29.52 in 5.0 mi East 17.3 mph 27.6 mph 0.00 in   Overcast
11:39 PM 59.0 °F 55.9 °F 90% 29.48 in 7.0 mi East 20.7 mph 35.7 mph N/A Thunderstorm Overcast
11:53 PM 57.9 °F 55.0 °F 90% 29.46 in 9.0 mi East 29.9 mph 40.3 mph N/A Thunderstorm Overcast